This is the latest recevied weather packets stored in our database for station/object W6DSP. If no packets are shown the sender has not sent any weather packets the latest 10 day(s).
| Time | Temp. | Humidity | Pressure | Rain* | Wind** | Luminosity | Snow |
|---|---|---|---|---|---|---|---|
| 1777919768 | 25.56° C | 49% | 1003.6 hPa | 0 mm | - | - | - |
| 1777919024 | 25° C | 51% | 1004 hPa | 0 mm | - | - | - |
| 1777918316 | 25° C | 54% | 1004 hPa | 0 mm | - | - | - |
| 1777917604 | 24.44° C | 51% | 1004.1 hPa | 0 mm | - | - | - |
| 1777916860 | 23.89° C | 51% | 1003.9 hPa | 0 mm | - | - | - |
| 1777916119 | 24.44° C | 51% | 1004 hPa | 0 mm | - | - | - |
| 1777915367 | 23.89° C | 55% | 1004.3 hPa | 0 mm | - | - | - |
| 1777914673 | 23.89° C | 58% | 1004.5 hPa | 0 mm | - | - | - |
| 1777913920 | 23.33° C | 56% | 1004.7 hPa | 0 mm | - | - | - |
| 1777913222 | 22.78° C | 54% | 1005 hPa | 0 mm | - | - | - |
| 1777912464 | 22.22° C | 55% | 1005.1 hPa | 0 mm | - | - | - |
| 1777911752 | 22.22° C | 56% | 1005.3 hPa | 0 mm | - | - | - |
| 1777911061 | 21.67° C | 54% | 1005.4 hPa | 0 mm | - | - | - |
| 1777910352 | 21.11° C | 58% | 1005.7 hPa | 0 mm | - | - | - |
| 1777909630 | 20.56° C | 55% | 1005.9 hPa | 0 mm | - | - | - |
| 1777908886 | 20° C | 58% | 1006.1 hPa | 0 mm | - | - | - |
| 1777908177 | 20.56° C | 61% | 1006.2 hPa | 0 mm | - | - | - |
| 1777907452 | 19.44° C | 61% | 1006.3 hPa | 0 mm | - | - | - |
| 1777906756 | 19.44° C | 65% | 1006.1 hPa | 0 mm | - | - | - |
| 1777906055 | 18.89° C | 61% | 1006.4 hPa | 0 mm | - | - | - |
| 1777905297 | 18.33° C | 62% | 1006.4 hPa | 0 mm | - | - | - |
| 1777904597 | 17.78° C | 63% | 1006.5 hPa | 0 mm | - | - | - |
| 1777903895 | 17.22° C | 64% | 1006.8 hPa | 0 mm | - | - | - |
| 1777903172 | 16.67° C | 66% | 1007 hPa | 0 mm | - | - | - |
| 1777902415 | 16.11° C | 69% | 1007 hPa | 0 mm | - | - | - |
* Rain latest hour (hover to see other rain measurements)
** Current wind speed in m/s (hover to see current wind gust speed)